Regional Weather Roundup
Issued by NWS Goodland, KS

Home | Current Version | Previous Version | Graphics & Text | Print | Product List | Glossary On
Versions: 1 2 3 4 5 6 7 8 9 10 11 12 13 14 15 16 17 18 19 20 21 22 23 24 25 26 27 28 29 30 31 32 33 34 35 36 37 38 39 40 41 42 43 44 45 46 47 48 49 50
000
ASUS43 KGLD 230708
RWRGLD

GOODLAND FORECAST AREA HOURLY WEATHER ROUNDUP
NATIONAL WEATHER SERVICE GOODLAND KS
1200 AM MST MON JAN 23 2017

...OFFICIAL OBSERVATIONS...

CITY           SKY/WX    TMP DP  RH WIND       PRES   REMARKS
GOODLAND KS    PTCLDY    27  23  85 CALM      29.85F
HILL CITY KS   CLEAR     28  26  92 W8        29.91F
IMPERIAL NEB   PTCLDY    30  24  78 SW5       29.85F
MCCOOK NEB     CLOUDY    24  22  91 W6        29.87F
AKRON CO       CLOUDY    31  20  63 S13       29.79F
BURLINGTON CO  CLOUDY    30  24  78 S9        29.85F
LIMON CO       CLOUDY    25  20  81 SE7       29.82F
$$

...UNOFFICIAL OBSERVATIONS...

CITY           SKY/WX    TMP DP  RH WIND       PRES   REMARKS
LENORA KS        N/A     33  32  96 W5          N/A
NORTON KS      CLEAR     28  23  80 SW7       29.89S
SHARON SPRINGS   N/A     27  23  85 S7          N/A
TRENTON NEB      N/A     31  32 100 CALM        N/A
KIT CARSON CO    N/A     28  23  81 CALM        N/A
YUMA CO        FAIR      27  21  80 S3        29.82F
$$




USA.gov is the U.S. government's official web portal to all federal, state and local government web resources and services.